Location: Caltech
(34.1382°N, 118.1253°W)
Time: 15:12:06
(UTC-08:00)

Iridium 91 - Visible Passes

Search period start: 25 November 2014 00:00
Search period end: 05 December 2014 00:00
Orbit: 775 x 780 km, 86.4° (Epoch: 25 November)

Date Brightness Start Highest point End Pass type
(mag) Time Alt. Az. Time Alt. Az. Time Alt. Az.
25 Nov 7.2 03:50:10 10° NNE 03:54:47 31° E 03:59:22 10° SE visible
25 Nov 6.5 05:31:13 10° NNW 05:35:16 23° W 05:39:18 10° SW visible
26 Nov 8.1 03:18:42 13° NE 03:21:02 17° ENE 03:24:17 10° ESE visible
26 Nov 5.7 04:59:19 25° NNW 05:01:57 45° W 05:06:52 10° SSW visible
26 Nov 8.2 17:51:15 10° SW 17:54:57 19° W 17:58:39 10° NNW visible
27 Nov 5.4 04:27:41 64° N 04:28:31 88° W 04:33:43 10° S visible
27 Nov 7.2 17:16:27 10° SSW 17:21:14 37° W 17:26:02 10° NNW visible
28 Nov 6.5 03:55:48 43° ESE 03:55:48 43° ESE 03:59:57 10° SSE visible
28 Nov 7.1 05:36:22 15° W 05:36:22 15° W 05:38:12 10° WSW visible
29 Nov 7.9 03:23:44 18° ESE 03:23:44 18° ESE 03:25:29 10° SE visible
29 Nov 6.9 05:04:17 21° SW 05:04:17 21° SW 05:06:25 10° SW visible
29 Nov 8.5 17:52:55 10° WSW 17:55:14 13° WNW 17:57:33 10° NW visible
30 Nov 7.2 04:32:05 20° SSW 04:32:05 20° SSW 04:33:40 10° SSW visible
30 Nov 7.9 17:17:13 10° SW 17:21:26 25° W 17:25:41 10° NNW visible
01 Dec 7.9 03:59:47 13° S 03:59:47 13° S 04:00:17 10° S visible
03 Dec 8.2 17:18:23 10° WSW 17:21:42 17° WNW 17:25:01 10° NW visible
